星链-30104 (STARLINK-30104 )

导读 | 星芒AI

STARLINK-30104 是 SpaceX Starlink 卫星互联网项目中的一颗低轨卫星,属于第三代星链卫星(v1.5)。该卫星于2023年发射,旨在为全球提供高速、低延迟的宽带互联网服务。它运行在约540公里高的近地轨道,配备先进通信设备和激光链路,支持星间通信,提升网络效率与覆盖范围。作为星链计划的重要组成部分,STARLINK-30104 有助于扩大偏远地区的网络接入,推动全球互联网普及。

基本信息
目录编号:
56300
目录名称:
STARLINK-30104
国际标识:
2023-056Q
轨道中心:
EARTH
卫星名称:
星链-30104
卫星全名:
星链-30104 (STARLINK-30104 )
卫星状态:
在轨 (已飞行925 天)
发射日期:
2023-04-19 UTC
国别 :
美国 (US)
星等 :
--
轨道信息
数据来源 国际轨道数据 AOE轨道数据
星历时间 2025-10-30T08:41:44+0800
14小时前
查看轨道信息
2025-10-26T16:00:00+0800
4天前
查看轨道信息
半长轴 6937.205km 6937.268km
偏心率 0.0000826 0.0000601
轨道倾角 43.002° 43.004°
近地点辐角 270.945° 175.827°
升交点赤经 199.875° 219.951°
平近点角 89.130° 330.999°
近地点 558.496km 558.716km
远地点 559.644km 559.55km
周期 95.838分钟 95.839分钟
每日圈数 15.0254 15.025194
详细信息
固有亮度:
5
最大亮度:
0.3
卫星平台:
Starlink v2.0 mini
覆盖范围:
全球
运营商:
太空探索技术公司
运营商所在国:
美国
制造商(研发单位):
太空探索技术公司
制造商所在国:
美国
使用方式:
暂无
卫星简介
星链(Starlink)计划是由太空探索技术公司(SpaceX)提出的一个巨型低轨卫星互联网星座项目,计划在2019年至2024年间在太空搭建由约1.2万颗卫星组成的“星链”网络,其中1584颗将部署在地球上空550千米处的近地轨道,并从2020年开始工作。该卫星仍在工作。
2D轨道图
3D轨道图
轨道高度分析图
轨道倾角分析图
轨道综合分析图
查看轨道综合分析图